Черная

Россия / Ненецкий автономный округ     68°27′10″N   56°42′21″E
темп.,
°C
ветер,
м/с
пор.,
м/с
влажн.,
%
обл.,
%
осадки,
мм/ч
давл.,
гПа
погр.,
м
24 июня, чт
чт2400:00+4ссз6108880 0.0 1019252
03:00+4ссз68867 0.0 1019282
06:00+5с56784 0.0 1020406
09:00+7с55706 0.0 1020463
12:00+7с5470100 0.0 1019432
15:00+8ссв5467100 0.0 1019408
18:00+6св4471100 0.0 1018262
21:00+5св347695 0.0 1017127
25 июня, пт
пт2500:00+5ссв357599 0.0 1017129
03:00+5св3572100 0.0 1017136
06:00+8св456047 0.0 1016200
09:00+11св55505 0.0 1016507
12:00+11ссв88475 0.0 1017379
15:00+10ссв89490 0.0 1017289
18:00+8св79580 0.0 1017197
21:00+6ссв47681 0.0 1018132
26 июня, сб
сб2600:00+5св46725 0.0 101775
03:00+7в37616 0.0 1017189
06:00+10в4442100 0.0 1017341
09:00+12всв4437100 0.0 1016588
12:00+14св4437100 0.0 1015675
15:00+14ссв42405 0.0 1014490
18:00+12ссв33465 0.0 1013119
21:00+11ссв1254100 0.0 101212
27 июня, вс
вс2700:00+11зсз1152100 0.0 101211
03:00+10ссз4552100 0.0 1012131
06:00+7сз5760100 0.0 1014208
09:00+9сз787676 0.0 1015487
12:00+9ссз786844 0.0 1017632
15:00+8сз67686 0.0 1018657
18:00+8сз56675 0.0 1018693
21:00+6сз3576100 0.0 1019257
28 июня, пн
пн2800:00+6сз238064 0.0 1018140
03:00+6зюз00769 0.0 1019117
06:00+9ююв23605 0.0 1018483
09:00+13ююв33489 0.0 1017839
12:00+16ююв4542100 0.0 10151121
15:00+13юв3656100 0.0 1014160
18:00+12вюв5972100 0.8 1011279
21:00+12вюв71376100 2.3 1008390